<?xml version='1.0' encoding='UTF-8'?>
<gpx xmlns="http://www.topografix.com/GPX/1/1" creator="www.balnam.be" version="1.1" xmlns:xsi="http://www.w3.org/2001/XMLSchema-instance" xsi:schemaLocation="http://www.topografix.com/GPX/1/1 http://www.topografix.com/GPX/1/1/gpx.xsd">
<trk>
<name>hthdt1</name>
<cmt>v</cmt>
<desc>Donstiennes Chemin n°1 </desc>
<link href="https://chemins.be/donstiennes/chemin/1"/><trkseg>
<trkpt lat="50.286402" lon="4.310216"><time>2026-05-03T00:23:41Z</time></trkpt>
<trkpt lat="50.287391" lon="4.311169"><time>2026-05-03T00:33:41Z</time></trkpt>
<trkpt lat="50.288965" lon="4.312669"><time>2026-05-03T00:43:41Z</time></trkpt>
<trkpt lat="50.289775" lon="4.313776"><time>2026-05-03T00:53:41Z</time></trkpt>
<trkpt lat="50.290603" lon="4.316624"><time>2026-05-03T01:03:41Z</time></trkpt>
</trkseg>
</trk>
<trk>
<name>hthdt12</name>
<cmt>q</cmt>
<desc>Donstiennes Chemin n°12 </desc>
<link href="https://chemins.be/donstiennes/chemin/12"/><trkseg>
<trkpt lat="50.285873" lon="4.313205"><time>2026-05-03T00:23:41Z</time></trkpt>
<trkpt lat="50.286179" lon="4.313752"><time>2026-05-03T00:33:41Z</time></trkpt>
<trkpt lat="50.286548" lon="4.314285"><time>2026-05-03T00:43:41Z</time></trkpt>
</trkseg>
</trk>
<trk>
<name>hthdt13</name>
<cmt>q</cmt>
<desc>Donstiennes Chemin n°13 Ruelle du Culot</desc>
<link href="https://chemins.be/donstiennes/chemin/13"/><trkseg>
<trkpt lat="50.286170" lon="4.313696"><time>2026-05-03T00:23:41Z</time></trkpt>
<trkpt lat="50.286358" lon="4.313457"><time>2026-05-03T00:33:41Z</time></trkpt>
<trkpt lat="50.286888" lon="4.312418"><time>2026-05-03T00:43:41Z</time></trkpt>
<trkpt lat="50.287292" lon="4.311225"><time>2026-05-03T00:53:41Z</time></trkpt>
</trkseg>
</trk>
<trk>
<name>hthdt14</name>
<cmt>v</cmt>
<desc>Donstiennes Chemin n°14 </desc>
<link href="https://chemins.be/donstiennes/chemin/14"/><trkseg>
<trkpt lat="50.293691" lon="4.312374"><time>2026-05-03T00:23:41Z</time></trkpt>
<trkpt lat="50.294293" lon="4.309372"><time>2026-05-03T00:33:41Z</time></trkpt>
<trkpt lat="50.294293" lon="4.309382"><time>2026-05-03T00:43:41Z</time></trkpt>
<trkpt lat="50.294763" lon="4.306612"><time>2026-05-03T00:53:41Z</time></trkpt>
<trkpt lat="50.294953" lon="4.305162"><time>2026-05-03T01:03:41Z</time></trkpt>
<trkpt lat="50.294883" lon="4.300991"><time>2026-05-03T01:13:41Z</time></trkpt>
<trkpt lat="50.294193" lon="4.297851"><time>2026-05-03T01:23:41Z</time></trkpt>
<trkpt lat="50.294713" lon="4.295631"><time>2026-05-03T01:33:41Z</time></trkpt>
<trkpt lat="50.294950" lon="4.294834"><time>2026-05-03T01:43:41Z</time></trkpt>
<trkpt lat="50.294943" lon="4.293431"><time>2026-05-03T01:53:41Z</time></trkpt>
<trkpt lat="50.294301" lon="4.288844"><time>2026-05-03T02:03:41Z</time></trkpt>
<trkpt lat="50.293923" lon="4.287631"><time>2026-05-03T02:13:41Z</time></trkpt>
<trkpt lat="50.293643" lon="4.284661"><time>2026-05-03T02:23:41Z</time></trkpt>
<trkpt lat="50.292803" lon="4.281031"><time>2026-05-03T02:33:41Z</time></trkpt>
</trkseg>
</trk>
<trk>
<name>hthdt17</name>
<cmt>q</cmt>
<desc>Donstiennes Sentier n°17 </desc>
<link href="https://chemins.be/donstiennes/sentier/17"/><trkseg>
<trkpt lat="50.286530" lon="4.314313"><time>2026-05-03T00:23:41Z</time></trkpt>
<trkpt lat="50.286845" lon="4.315449"><time>2026-05-03T00:33:41Z</time></trkpt>
<trkpt lat="50.287034" lon="4.316782"><time>2026-05-03T00:43:41Z</time></trkpt>
<trkpt lat="50.287304" lon="4.317849"><time>2026-05-03T00:53:41Z</time></trkpt>
<trkpt lat="50.287709" lon="4.318592"><time>2026-05-03T01:03:41Z</time></trkpt>
<trkpt lat="50.288186" lon="4.319195"><time>2026-05-03T01:13:41Z</time></trkpt>
</trkseg>
</trk>
<trk>
<name>hthdt17bis</name>
<cmt>q</cmt>
<desc>Donstiennes Sentier n°17bis </desc>
<link href="https://chemins.be/donstiennes/sentier/17bis"/><trkseg>
<trkpt lat="50.287274" lon="4.317703"><time>2026-05-03T00:23:41Z</time></trkpt>
<trkpt lat="50.287170" lon="4.318381"><time>2026-05-03T00:33:41Z</time></trkpt>
</trkseg>
</trk>
<trk>
<name>hthdt18</name>
<cmt>q</cmt>
<desc>Donstiennes Sentier n°18 </desc>
<link href="https://chemins.be/donstiennes/sentier/18"/><trkseg>
<trkpt lat="50.279893" lon="4.314119"><time>2026-05-03T00:23:41Z</time></trkpt>
<trkpt lat="50.281696" lon="4.309409"><time>2026-05-03T00:33:41Z</time></trkpt>
</trkseg>
</trk>
<trk>
<name>hthdt19</name>
<cmt>q</cmt>
<desc>Donstiennes Sentier n°19 </desc>
<link href="https://chemins.be/donstiennes/sentier/19"/><trkseg>
<trkpt lat="50.274947" lon="4.314562"><time>2026-05-03T00:23:41Z</time></trkpt>
<trkpt lat="50.273767" lon="4.314634"><time>2026-05-03T00:33:41Z</time></trkpt>
<trkpt lat="50.272652" lon="4.315978"><time>2026-05-03T00:43:41Z</time></trkpt>
<trkpt lat="50.268684" lon="4.316579"><time>2026-05-03T00:53:41Z</time></trkpt>
</trkseg>
</trk>
<trk>
<name>hthdt20</name>
<cmt>q</cmt>
<desc>Donstiennes Sentier n°20 </desc>
<link href="https://chemins.be/donstiennes/sentier/20"/><trkseg>
<trkpt lat="50.279948" lon="4.314215"><time>2026-05-03T00:23:41Z</time></trkpt>
<trkpt lat="50.282964" lon="4.312778"><time>2026-05-03T00:33:41Z</time></trkpt>
</trkseg>
</trk>
<trk>
<name>hthdt21</name>
<cmt>q</cmt>
<desc>Donstiennes Sentier n°21 </desc>
<link href="https://chemins.be/donstiennes/sentier/21"/><trkseg>
<trkpt lat="50.280236" lon="4.305632"><time>2026-05-03T00:23:41Z</time></trkpt>
<trkpt lat="50.281736" lon="4.309385"><time>2026-05-03T00:33:41Z</time></trkpt>
<trkpt lat="50.282299" lon="4.310793"><time>2026-05-03T00:43:41Z</time></trkpt>
<trkpt lat="50.282423" lon="4.311908"><time>2026-05-03T00:53:41Z</time></trkpt>
<trkpt lat="50.282964" lon="4.312756"><time>2026-05-03T01:03:41Z</time></trkpt>
<trkpt lat="50.283670" lon="4.313464"><time>2026-05-03T01:13:41Z</time></trkpt>
<trkpt lat="50.285556" lon="4.316715"><time>2026-05-03T01:23:41Z</time></trkpt>
<trkpt lat="50.287177" lon="4.318416"><time>2026-05-03T01:33:41Z</time></trkpt>
<trkpt lat="50.287424" lon="4.318682"><time>2026-05-03T01:43:41Z</time></trkpt>
<trkpt lat="50.288010" lon="4.320073"><time>2026-05-03T01:53:41Z</time></trkpt>
</trkseg>
</trk>
<trk>
<name>hthdt21bis</name>
<cmt>q</cmt>
<desc>Donstiennes Sentier n°21bis </desc>
<link href="https://chemins.be/donstiennes/sentier/21bis"/><trkseg>
<trkpt lat="50.287191" lon="4.318450"><time>2026-05-03T00:23:41Z</time></trkpt>
<trkpt lat="50.287476" lon="4.318180"><time>2026-05-03T00:33:41Z</time></trkpt>
</trkseg>
</trk>
<trk>
<name>hthdt22</name>
<cmt>q</cmt>
<desc>Donstiennes Sentier n°22 </desc>
<link href="https://chemins.be/donstiennes/sentier/22"/><trkseg>
<trkpt lat="50.284496" lon="4.311341"><time>2026-05-03T00:23:41Z</time></trkpt>
<trkpt lat="50.285215" lon="4.310877"><time>2026-05-03T00:33:41Z</time></trkpt>
</trkseg>
</trk>
<trk>
<name>hthdt23</name>
<cmt>q</cmt>
<desc>Donstiennes Sentier n°23 </desc>
<link href="https://chemins.be/donstiennes/sentier/23"/><trkseg>
<trkpt lat="50.284496" lon="4.311313"><time>2026-05-03T00:23:41Z</time></trkpt>
<trkpt lat="50.284352" lon="4.310401"><time>2026-05-03T00:33:41Z</time></trkpt>
<trkpt lat="50.283425" lon="4.308802"><time>2026-05-03T00:43:41Z</time></trkpt>
</trkseg>
</trk>
<trk>
<name>hthdt24</name>
<cmt>v</cmt>
<desc>Donstiennes Sentier n°24 </desc>
<link href="https://chemins.be/donstiennes/sentier/24"/><trkseg>
<trkpt lat="50.285341" lon="4.310793"><time>2026-05-03T00:23:41Z</time></trkpt>
<trkpt lat="50.284694" lon="4.309994"><time>2026-05-03T00:33:41Z</time></trkpt>
<trkpt lat="50.283119" lon="4.308396"><time>2026-05-03T00:43:41Z</time></trkpt>
</trkseg>
</trk>
<trk>
<name>hthdt25</name>
<cmt>q</cmt>
<desc>Donstiennes Sentier n°25 </desc>
<link href="https://chemins.be/donstiennes/sentier/25"/><trkseg>
<trkpt lat="50.275477" lon="4.313833"><time>2026-05-03T00:23:41Z</time></trkpt>
<trkpt lat="50.273685" lon="4.313246"><time>2026-05-03T00:33:41Z</time></trkpt>
<trkpt lat="50.270631" lon="4.309870"><time>2026-05-03T00:43:41Z</time></trkpt>
<trkpt lat="50.269788" lon="4.309278"><time>2026-05-03T00:53:41Z</time></trkpt>
<trkpt lat="50.268248" lon="4.308928"><time>2026-05-03T01:03:41Z</time></trkpt>
<trkpt lat="50.267226" lon="4.308696"><time>2026-05-03T01:13:41Z</time></trkpt>
</trkseg>
</trk>
<trk>
<name>hthdt26</name>
<cmt>r</cmt>
<desc>Donstiennes Sentier n°26 Rue Bout Troué</desc>
<link href="https://chemins.be/donstiennes/sentier/26"/><trkseg>
<trkpt lat="50.276615" lon="4.314044"><time>2026-05-03T00:23:41Z</time></trkpt>
<trkpt lat="50.276451" lon="4.314805"><time>2026-05-03T00:33:41Z</time></trkpt>
<trkpt lat="50.275731" lon="4.315513"><time>2026-05-03T00:43:41Z</time></trkpt>
<trkpt lat="50.275536" lon="4.315841"><time>2026-05-03T00:53:41Z</time></trkpt>
<trkpt lat="50.274833" lon="4.317895"><time>2026-05-03T01:03:41Z</time></trkpt>
</trkseg></trk>
<trk>
<name>hthdt26</name>
<cmt>q</cmt>
<desc>Donstiennes Sentier n°26 Rue Bout Troué</desc>
<link href="https://chemins.be/donstiennes/sentier/26"/><trkseg>
<trkpt lat="50.274833" lon="4.317895"><time>2026-05-03T01:03:41Z</time></trkpt>
<trkpt lat="50.273763" lon="4.322348"><time>2026-05-03T01:13:41Z</time></trkpt>
</trkseg>
</trk>
<trk>
<name>hthdt27</name>
<cmt>q</cmt>
<desc>Donstiennes Sentier n°27 </desc>
<link href="https://chemins.be/donstiennes/sentier/27"/><trkseg>
<trkpt lat="50.279399" lon="4.326510"><time>2026-05-03T00:23:41Z</time></trkpt>
<trkpt lat="50.276828" lon="4.325148"><time>2026-05-03T00:33:41Z</time></trkpt>
<trkpt lat="50.273201" lon="4.324182"><time>2026-05-03T00:43:41Z</time></trkpt>
</trkseg>
</trk>
<trk>
<name>hthdt28</name>
<cmt>q</cmt>
<desc>Donstiennes Sentier n°28 </desc>
<link href="https://chemins.be/donstiennes/sentier/28"/><trkseg>
<trkpt lat="50.279207" lon="4.319376"><time>2026-05-03T00:23:41Z</time></trkpt>
<trkpt lat="50.277802" lon="4.323034"><time>2026-05-03T00:33:41Z</time></trkpt>
<trkpt lat="50.276451" lon="4.327326"><time>2026-05-03T00:43:41Z</time></trkpt>
</trkseg>
</trk>
<trk>
<name>hthdt29</name>
<cmt>q</cmt>
<desc>Donstiennes Sentier n°29 </desc>
<link href="https://chemins.be/donstiennes/sentier/29"/><trkseg>
<trkpt lat="50.286566" lon="4.314313"><time>2026-05-03T00:23:41Z</time></trkpt>
<trkpt lat="50.287492" lon="4.315000"><time>2026-05-03T00:33:41Z</time></trkpt>
<trkpt lat="50.288616" lon="4.316346"><time>2026-05-03T00:43:41Z</time></trkpt>
<trkpt lat="50.289920" lon="4.317341"><time>2026-05-03T00:53:41Z</time></trkpt>
</trkseg>
</trk>
<trk>
<name>hthdt3</name>
<cmt>q</cmt>
<desc>Donstiennes Chemin n°3 Rue Brunehault</desc>
<link href="https://chemins.be/donstiennes/chemin/3"/><trkseg>
<trkpt lat="50.279827" lon="4.314226"><time>2026-05-03T00:23:41Z</time></trkpt>
<trkpt lat="50.279694" lon="4.317704"><time>2026-05-03T00:33:41Z</time></trkpt>
</trkseg></trk>
<trk>
<name>hthdt3</name>
<cmt>r</cmt>
<desc>Donstiennes Chemin n°3 Rue Brunehault</desc>
<link href="https://chemins.be/donstiennes/chemin/3"/><trkseg>
<trkpt lat="50.279694" lon="4.317704"><time>2026-05-03T00:33:41Z</time></trkpt>
<trkpt lat="50.279598" lon="4.320243"><time>2026-05-03T00:43:41Z</time></trkpt>
</trkseg></trk>
<trk>
<name>hthdt3</name>
<cmt>v</cmt>
<desc>Donstiennes Chemin n°3 Rue Brunehault</desc>
<link href="https://chemins.be/donstiennes/chemin/3"/><trkseg>
<trkpt lat="50.279598" lon="4.320243"><time>2026-05-03T00:43:41Z</time></trkpt>
<trkpt lat="50.279392" lon="4.326532"><time>2026-05-03T00:53:41Z</time></trkpt>
</trkseg>
</trk>
<trk>
<name>hthdt30</name>
<cmt>q</cmt>
<desc>Donstiennes Sentier n°30 </desc>
<link href="https://chemins.be/donstiennes/sentier/30"/><trkseg>
<trkpt lat="50.286764" lon="4.309385"><time>2026-05-03T00:23:41Z</time></trkpt>
<trkpt lat="50.290553" lon="4.305301"><time>2026-05-03T00:33:41Z</time></trkpt>
<trkpt lat="50.292490" lon="4.303105"><time>2026-05-03T00:43:41Z</time></trkpt>
<trkpt lat="50.293939" lon="4.299808"><time>2026-05-03T00:53:41Z</time></trkpt>
<trkpt lat="50.295168" lon="4.298964"><time>2026-05-03T01:03:41Z</time></trkpt>
</trkseg>
</trk>
<trk>
<name>hthdt31</name>
<cmt>q</cmt>
<desc>Donstiennes Sentier n°31 </desc>
<link href="https://chemins.be/donstiennes/sentier/31"/><trkseg>
<trkpt lat="50.282697" lon="4.306329"><time>2026-05-03T00:23:41Z</time></trkpt>
<trkpt lat="50.282114" lon="4.303111"><time>2026-05-03T00:33:41Z</time></trkpt>
<trkpt lat="50.280949" lon="4.302124"><time>2026-05-03T00:43:41Z</time></trkpt>
<trkpt lat="50.280318" lon="4.300675"><time>2026-05-03T00:53:41Z</time></trkpt>
</trkseg>
</trk>
<trk>
<name>hthdt32</name>
<cmt>q</cmt>
<desc>Donstiennes Sentier n°32 </desc>
<link href="https://chemins.be/donstiennes/sentier/32"/><trkseg>
<trkpt lat="50.282148" lon="4.303100"><time>2026-05-03T00:23:41Z</time></trkpt>
<trkpt lat="50.281956" lon="4.302059"><time>2026-05-03T00:33:41Z</time></trkpt>
<trkpt lat="50.281470" lon="4.301652"><time>2026-05-03T00:43:41Z</time></trkpt>
<trkpt lat="50.280396" lon="4.298838"><time>2026-05-03T00:53:41Z</time></trkpt>
</trkseg>
</trk>
<trk>
<name>hthdt33</name>
<cmt>r</cmt>
<desc>Donstiennes Sentier n°33 </desc>
<link href="https://chemins.be/donstiennes/sentier/33"/><trkseg>
<trkpt lat="50.268270" lon="4.308786"><time>2026-05-03T00:23:41Z</time></trkpt>
<trkpt lat="50.268764" lon="4.308114"><time>2026-05-03T00:33:41Z</time></trkpt>
</trkseg>
</trk>
<trk>
<name>hthdt4</name>
<cmt>v</cmt>
<desc>Donstiennes Chemin n°4 </desc>
<link href="https://chemins.be/donstiennes/chemin/4"/><trkseg>
<trkpt lat="50.292595" lon="4.307570"><time>2026-05-03T00:23:41Z</time></trkpt>
<trkpt lat="50.294851" lon="4.306655"><time>2026-05-03T00:33:41Z</time></trkpt>
<trkpt lat="50.295903" lon="4.306654"><time>2026-05-03T00:43:41Z</time></trkpt>
<trkpt lat="50.299023" lon="4.306706"><time>2026-05-03T00:53:41Z</time></trkpt>
</trkseg>
</trk>
<trk>
<name>hthdt6</name>
<cmt>v</cmt>
<desc>Donstiennes Chemin n°6 Rue de Donstiennes</desc>
<link href="https://chemins.be/donstiennes/chemin/6"/><trkseg>
<trkpt lat="50.286050" lon="4.307957"><time>2026-05-03T00:23:41Z</time></trkpt>
<trkpt lat="50.286140" lon="4.307761"><time>2026-05-03T00:33:41Z</time></trkpt>
<trkpt lat="50.286706" lon="4.306904"><time>2026-05-03T00:43:41Z</time></trkpt>
<trkpt lat="50.286822" lon="4.305599"><time>2026-05-03T00:53:41Z</time></trkpt>
<trkpt lat="50.287001" lon="4.303620"><time>2026-05-03T01:03:41Z</time></trkpt>
<trkpt lat="50.286829" lon="4.302105"><time>2026-05-03T01:13:41Z</time></trkpt>
<trkpt lat="50.286784" lon="4.301165"><time>2026-05-03T01:23:41Z</time></trkpt>
</trkseg></trk>
<trk>
<name>hthdt6</name>
<cmt>r</cmt>
<desc>Donstiennes Chemin n°6 Rue de Donstiennes</desc>
<link href="https://chemins.be/donstiennes/chemin/6"/><trkseg>
<trkpt lat="50.286784" lon="4.301165"><time>2026-05-03T01:23:41Z</time></trkpt>
<trkpt lat="50.287017" lon="4.300210"><time>2026-05-03T01:33:41Z</time></trkpt>
<trkpt lat="50.287924" lon="4.299030"><time>2026-05-03T01:43:41Z</time></trkpt>
<trkpt lat="50.290051" lon="4.293049"><time>2026-05-03T01:53:41Z</time></trkpt>
</trkseg></trk>
<trk>
<name>hthdt6</name>
<cmt>v</cmt>
<desc>Donstiennes Chemin n°6 Rue de Donstiennes</desc>
<link href="https://chemins.be/donstiennes/chemin/6"/><trkseg>
<trkpt lat="50.290051" lon="4.293049"><time>2026-05-03T01:53:41Z</time></trkpt>
<trkpt lat="50.291092" lon="4.290283"><time>2026-05-03T02:03:41Z</time></trkpt>
<trkpt lat="50.291197" lon="4.285273"><time>2026-05-03T02:13:41Z</time></trkpt>
<trkpt lat="50.292857" lon="4.281565"><time>2026-05-03T02:23:41Z</time></trkpt>
</trkseg>
</trk>
<trk>
<name>hthdt7</name>
<cmt>v</cmt>
<desc>Donstiennes Chemin n°7 </desc>
<link href="https://chemins.be/donstiennes/chemin/7"/><trkseg>
<trkpt lat="50.282539" lon="4.309248"><time>2026-05-03T00:23:41Z</time></trkpt>
<trkpt lat="50.279975" lon="4.309570"><time>2026-05-03T00:33:41Z</time></trkpt>
</trkseg>
</trk>
<trk>
<name>hthdtL109</name>
<cmt>v</cmt>
<desc>Donstiennes Chemin n°L109 </desc>
<link href="https://chemins.be/donstiennes/chemin/L109"/><trkseg>
<trkpt lat="50.283926" lon="4.322286"><time>2026-05-03T00:23:41Z</time></trkpt>
<trkpt lat="50.280497" lon="4.316947"><time>2026-05-03T00:33:41Z</time></trkpt>
<trkpt lat="50.277142" lon="4.311827"><time>2026-05-03T00:43:41Z</time></trkpt>
</trkseg>
</trk>
</gpx>